Olive Branch, MS

7:33 PM CDT on June 25, 2017 (GMT -0500)
Olive Branch

Weather History for KOLV - March, 2013

Change the Weather History Date:

Tuesday, March 5, 2013

  Actual Average (KMEM) Record (KMEM)
Temperature  
Mean Temperature 48 °F -  
Max Temperature 60 °F 58 °F 80 °F (1918)
Min Temperature 35 °F 37 °F 15 °F (1960)
Degree Days  
Heating Degree Days 18    
Moisture  
Dew Point 42 °F    
Average Humidity 77    
Maximum Humidity 100    
Minimum Humidity 46    
Precipitation  
Precipitation 0.00 in - - ()
Sea Level Pressure  
Sea Level Pressure 29.95 in    
Wind  
Wind Speed 16 mph (West)    
Max Wind Speed 24 mph    
Max Gust Speed 37 mph    
Visibility 9 miles    
Events Rain    
Averages and records for this station are not official NWS values.
T = Trace of Precipitation, MM = Missing Value Source: NWS Daily Summary

Daily Weather History Graph

Daily Weather History Graph

Search for Another Location

Airport or City:

Trip Planner

Search our weather history database for the weather conditions in past years. The results will help you decide how hot, cold, wet, or windy it might be!

Date:

Astronomy

Mar. 05, 2013 Rise Set
Actual Time 6:23 AM CST 5:58 PM CST
Civil Twilight 5:57 AM CST 6:23 PM CST
Nautical Twilight 5:28 AM CST 6:53 PM CST
Astronomical Twilight 4:59 AM CST 7:22 PM CST
Moon 1:25 AM CST (3/5) 11:47 AM CST (3/5)
Length of Visible Light 12h 26m
Length of Day
11h 35m
Last Quarter, 40% of the Moon is Illuminated
Mar 5
Last Quarter
Mar 11
New
Mar 19
First Quarter
Mar 27
Full
Apr 2
Last Quarter

Hourly Weather History & Observations

Time (CST) Temp. Windchill Dew Point Humidity Pressure Visibility Wind Dir Wind Speed Gust Speed Precip Events Conditions
12:15 AM 55.4 °F - 48.2 °F 77% 29.79 in 10.0 mi South 13.8 mph - 0.00 in   Clear
12:35 AM 55.4 °F - 48.2 °F 77% 29.79 in 9.0 mi South 15.0 mph - 0.00 in   Clear
12:55 AM 55.4 °F - 50.0 °F 82% 29.78 in 10.0 mi South 13.8 mph - 0.00 in   Clear
1:15 AM 57.2 °F - 50.0 °F 77% 29.79 in 10.0 mi South 12.7 mph - 0.00 in   Mostly Cloudy
1:35 AM 57.2 °F - 51.8 °F 82% 29.80 in 10.0 mi South 11.5 mph - 0.00 in   Overcast
1:55 AM 57.2 °F - 51.8 °F 82% 29.80 in 10.0 mi South 10.4 mph - 0.00 in   Overcast
2:15 AM 57.2 °F - 53.6 °F 88% 29.80 in 7.0 mi South 16.1 mph 20.7 mph 0.00 in   Overcast
2:35 AM 60.8 °F - 55.4 °F 82% 29.79 in 10.0 mi SSW 19.6 mph - 0.00 in   Overcast
2:55 AM 60.8 °F - 57.2 °F 88% 29.79 in 10.0 mi SSW 17.3 mph 28.8 mph 0.00 in   Overcast
3:15 AM 60.8 °F - 57.2 °F 88% 29.79 in 10.0 mi SSW 20.7 mph 29.9 mph 0.00 in   Overcast
3:35 AM 60.8 °F - 57.2 °F 88% 29.79 in 9.0 mi SSW 20.7 mph 25.3 mph 0.00 in   Overcast
3:55 AM 60.8 °F - 57.2 °F 88% 29.80 in 10.0 mi SSW 23.0 mph - 0.00 in   Overcast
4:15 AM 60.8 °F - 57.2 °F 88% 29.79 in 10.0 mi SSW 18.4 mph - 0.00 in   Overcast
4:35 AM 60.8 °F - 57.2 °F 88% 29.79 in 8.0 mi SSW 15.0 mph 23.0 mph 0.00 in   Overcast
4:55 AM 60.8 °F - 57.2 °F 88% 29.79 in 10.0 mi South 15.0 mph - 0.00 in   Overcast
5:15 AM 60.8 °F - 57.2 °F 88% 29.80 in 10.0 mi SSW 17.3 mph 23.0 mph 0.00 in   Overcast
5:35 AM 60.8 °F - 57.2 °F 88% 29.80 in 10.0 mi SSW 18.4 mph 26.5 mph 0.00 in   Overcast
5:55 AM 60.8 °F - 57.2 °F 88% 29.81 in 10.0 mi SSW 11.5 mph 18.4 mph 0.00 in   Overcast
6:50 AM 59.0 °F - 59.0 °F 100% 29.79 in 8.0 mi SW 13.8 mph 23.0 mph N/A Rain Light Rain
7:50 AM 53.6 °F - 53.6 °F 100% 29.83 in 5.0 mi NW 11.5 mph 28.8 mph N/A   Overcast
8:30 AM 48.2 °F - 48.2 °F 100% 29.86 in 8.0 mi NNW 13.8 mph 28.8 mph N/A   Overcast
8:50 AM 46.4 °F 40.4 °F 46.4 °F 100% 29.85 in 2.5 mi NNW 13.8 mph 29.9 mph N/A Rain Rain
9:50 AM 39.2 °F 32.0 °F 39.2 °F 100% 29.94 in 3.0 mi NW 11.5 mph 23.0 mph N/A Rain Rain
10:50 AM 37.4 °F 27.2 °F 37.4 °F 100% 29.96 in 7.0 mi NW 19.6 mph 31.1 mph N/A   Overcast
11:50 AM 41.0 °F 30.9 °F 39.2 °F 93% 30.01 in 9.0 mi NW 24.2 mph 36.8 mph N/A   Overcast
12:50 PM 41.0 °F 31.9 °F 37.4 °F 87% 30.01 in 10.0 mi NW 19.6 mph 28.8 mph N/A   Overcast
1:50 PM 42.8 °F 35.1 °F 33.8 °F 70% 30.02 in 9.0 mi NW 16.1 mph 25.3 mph N/A   Mostly Cloudy
2:50 PM 46.4 °F 38.5 °F 33.8 °F 62% 30.04 in 9.0 mi NW 21.9 mph 34.5 mph N/A   Mostly Cloudy
3:50 PM 46.4 °F 39.5 °F 32.0 °F 57% 30.05 in 10.0 mi WNW 17.3 mph 28.8 mph N/A   Mostly Cloudy
4:50 PM 46.4 °F 38.7 °F 32.0 °F 57% 30.07 in 10.0 mi WNW 20.7 mph 27.6 mph N/A   Partly Cloudy
5:50 PM 44.6 °F 38.1 °F 24.8 °F 46% 30.09 in 10.0 mi WNW 13.8 mph 23.0 mph N/A   Clear
6:50 PM 42.8 °F 36.6 °F 26.6 °F 53% 30.11 in 10.0 mi WNW 11.5 mph 16.1 mph N/A   Clear
7:50 PM 41.0 °F 33.1 °F 26.6 °F 57% 30.12 in 10.0 mi WNW 15.0 mph 20.7 mph N/A   Clear
8:15 PM 41.0 °F 33.1 °F 26.6 °F 57% 30.12 in 9.0 mi WNW 15.0 mph 20.7 mph 0.00 in   Clear
8:35 PM 41.0 °F 33.5 °F 26.6 °F 57% 30.13 in 10.0 mi WNW 13.8 mph 24.2 mph 0.00 in   Clear
8:55 PM 39.2 °F 29.6 °F 24.8 °F 56% 30.13 in 10.0 mi WNW 19.6 mph 27.6 mph 0.00 in   Clear
9:15 PM 39.2 °F 30.5 °F 26.6 °F 61% 30.14 in 9.0 mi NW 16.1 mph 24.2 mph 0.00 in   Clear
9:35 PM 39.2 °F 30.5 °F 26.6 °F 61% 30.15 in 10.0 mi NW 16.1 mph 24.2 mph 0.00 in   Clear
9:55 PM 39.2 °F 31.6 °F 26.6 °F 61% 30.16 in 10.0 mi NW 12.7 mph 21.9 mph 0.00 in   Clear
10:15 PM 37.4 °F 27.8 °F 26.6 °F 65% 30.18 in 10.0 mi NW 17.3 mph 26.5 mph 0.00 in   Partly Cloudy
10:35 PM 37.4 °F 27.2 °F 26.6 °F 65% 30.18 in 9.0 mi NW 19.6 mph 24.2 mph 0.00 in   Scattered Clouds
10:55 PM 37.4 °F 27.5 °F 26.6 °F 65% 30.18 in 10.0 mi NW 18.4 mph 21.9 mph 0.00 in   Partly Cloudy
11:15 PM 37.4 °F 28.2 °F 26.6 °F 65% 30.18 in 10.0 mi NW 16.1 mph 21.9 mph 0.00 in   Clear
11:35 PM 35.6 °F 25.2 °F 26.6 °F 70% 30.18 in 10.0 mi WNW 18.4 mph 23.0 mph 0.00 in   Clear
11:55 PM 35.6 °F 27.1 °F 26.6 °F 70% 30.19 in 10.0 mi NW 12.7 mph 21.9 mph 0.00 in   Clear